THOR ABLESTAR DEB, 230

Orbit data source: Space-Track

THOR ABLESTAR DEB, 230 is space debris in LEO originally from a launch on Thu, 29 Jun 1961 UTC launched from the Air Force Eastern Test Range (AFETR). Debris objects in space refer to the collection of defunct objects orbiting the Earth. Examples of debris include non-operational satellites, rocket bodies, and fragments generated from explosions, collisions, or faulty payload assembly.

Loading next visibility...
Identifier
230, 1961-015BN
Orbit
LEO
Country
Flag of USUS
Related business
Manufacturer
Unknown
Mission
Spacecraft
Bus & Motor
Unknown
Mass
Unknown
Launch date (UTC)
1961-06-29 (65 years ago)
Launch vehicle
Unknown
Launch site
Air Force Eastern Test Range (AFETR)
Object type
Payload
Rocket body
Debris
Shape & HBR
Unknown shape, 0.2 m
Radar Cross Section
Small (<0.1 m²)

Expand to show TLE details & history
Last TLE update: 19 hours ago

TLE from 19 hours ago
0 THOR ABLESTAR DEB
1 00230U 61015BN  26036.36608057  .00000110  00000-0  12920-3 0  9999
2 00230  66.8845  13.0811 0099953 268.3291  90.6341 13.96773556287343
Epoch: 2026-02-05T08:47Z
TLE epoch observation values (Epoch: 2026-02-05T08:47:09.361Z)
Latitude
Longitude
105.77276°
Altitude
908.611 km
Speed
7.397 km/s
True Right ascension
00h 52m 19s
True Declination
0° 00' 00"
Sunlit
Object was in daylight at epoch
Visualization orbit readout
Latitude
Unknown
Longitude
Unknown
Altitude
Unknown
Speed
Unknown
Apparent Right ascension
Unknown
Apparent Declination
Unknown
Sunlit
N/A
Visualization observer readout
Local Sidereal Time
05:55:34
Azimuth
Unknown
Elevation
Unknown
Doppler factor
Unknown
Orbital elements
Apogee altitude
976.149 km
Perigee altitude
830.587 km
Semi-major axis
7,281.505 km
Eccentricity
0.01
Inclination
66.8845°
RAAN
13.0811°
Arg. of periapsis
268.3291°
True anomaly
91.77917°
Mean anomaly
90.6341°
Eccentric anomaly
91.20666°
Mean motion
3.4931 °/min
Orbital period
103.06 mins
BSTAR
0.0001292
Loading maneuver chart data...
Computing Atmospheric mass density...

Documentation

Showing up to 5 results
|